QPF
0.00 0.00 0.00 0.01 0.01 0.00 0.00 0.00 0.00 0.00 0.00 0.00 0.00 0.00 0.00 0.00 0.00 0.01 0.01 0.00 0.00 0.00 0.00 0.00 0.00 0.00 0.00 0.00 0.00 0.00 0.00 0.00 0.00 0.00 0.00 0.00 0.00 0.00 0.00 0.00 0.00 0.00 0.00
0.00 0.00 0.00 0.01 0.00 0.00 0.00 0.00 0.00 0.00 0.00 0.00 0.00 0.00 0.00 0.00 0.01 0.02 0.03 0.01 0.00 0.00 0.00 0.00 0.00 0.00 0.00 0.00 0.00 0.01 0.00 0.00 0.00 0.00 0.00 0.00 0.00 0.00 0.00 0.00 0.00 0.00 0.00
0.00 0.00 0.00 0.01 0.00 0.00 0.00 0.00 0.00 0.00 0.00 0.00 0.00 0.00 0.00 0.01 0.02 0.02 0.01 0.00 0.00 0.00 0.00 0.00 0.00 0.00 0.00 0.00 0.00 0.01 0.00 0.00 0.00 0.01 0.01 0.00 0.00 0.00 0.00 0.00 0.00 0.00 0.00
0.00 0.00 0.00 0.01 0.00 0.00 0.00 0.00 0.00 0.00 0.00 0.00 0.00 0.00 0.00 0.02 0.02 0.01 0.00 0.00 0.00 0.00 0.00 0.00 0.00 0.00 0.00 0.00 0.00 0.00 0.00 0.00 0.00 0.00 0.00 0.00 0.00 0.00 0.00 0.00 0.00 0.01 0.01
0.00 0.00 0.00 0.01 0.00 0.00 0.00 0.00 0.00 0.00 0.00 0.00 0.00 0.00 0.01 0.01 0.01 0.01 0.00 0.00 0.00 0.00 0.00 0.00 0.00 0.00 0.00 0.00 0.00 0.00 0.00 0.00 0.00 0.00 0.00 0.00 0.00 0.00 0.03 0.04 0.03 0.02 0.01
0.00 0.00 0.00 0.00 0.00 0.00 0.00 0.00 0.00 0.00 0.00 0.01 0.01 0.01 0.01 0.01 0.01 0.00 0.00 0.00 0.00 0.00 0.00 0.00 0.00 0.00 0.00 0.00 0.00 0.00 0.00 0.00 0.00 0.00 0.00 0.00 0.02 0.05 0.04 0.01 0.01 0.00 0.00
0.00 0.00 0.00 0.00 0.00 0.00 0.00 0.00 0.00 0.00 0.00 0.02 0.00 0.00 0.00 0.00 0.00 0.00 0.00 0.00 0.00 0.00 0.00 0.00 0.00 0.00 0.00 0.00 0.00 0.00 0.00 0.00 0.00 0.00 0.01 0.01 0.01 0.00 0.00 0.00 0.00 0.00 0.00
0.00 0.00 0.00 0.00 0.00 0.00 0.00 0.00 0.00 0.00 0.01 0.01 0.00 0.00 0.00 0.00 0.00 0.00 0.00 0.00 0.00 0.00 0.00 0.00 0.00 0.00 0.00 0.00 0.00 0.00 0.00 0.00 0.00 0.01 0.01 0.00 0.00 0.00 0.00 0.00 0.00 0.00 0.00
0.00 0.00 0.00 0.01 0.02 0.04 0.01 0.00 0.00 0.00 0.00 0.00 0.00 0.00 0.00 0.00 0.00 0.00 0.00 0.00 0.00 0.00 0.00 0.00 0.00 0.00 0.00 0.00 0.00 0.00 0.00 0.00 0.00 0.00 0.00 0.00 0.00 0.00 0.00 0.00 0.00 0.00 0.00
0.00 0.00 0.00 0.00 0.01 0.02 0.07 0.01 0.00 0.00 0.00 0.00 0.00 0.00 0.00 0.00 0.00 0.00 0.00 0.00 0.00 0.00 0.00 0.00 0.00 0.00 0.00 0.00 0.00 0.00 0.00 0.00 0.00 0.00 0.00 0.00 0.00 0.00 0.00 0.00 0.00 0.00 0.00
0.00 0.01 0.00 0.01 0.00 0.01 0.04 0.07 0.09 0.06 0.01 0.00 0.00 0.00 0.00 0.00 0.00 0.00 0.00 0.00 0.00 0.00 0.00 0.00 0.01 0.00 0.00 0.00 0.00 0.00 0.00 0.00 0.00 0.00 0.00 0.00 0.00 0.01 0.00 0.00 0.00 0.00 0.00
0.00 0.00 0.00 0.00 0.00 0.00 0.02 0.05 0.06 0.09 0.05 0.00 0.00 0.00 0.00 0.00 0.00 0.00 0.00 0.00 0.00 0.00 0.00 0.01 0.01 0.00 0.00 0.00 0.00 0.00 0.00 0.00 0.00 0.00 0.00 0.00 0.00 0.00 0.00 0.00 0.00 0.00 0.00
0.00 0.00 0.00 0.00 0.00 0.00 0.00 0.00 0.05 0.07 0.05 0.01 0.00 0.00 0.00 0.00 0.00 0.00 0.00 0.00 0.00 0.00 0.00 0.01 0.00 0.00 0.00 0.00 0.00 0.00 0.00 0.00 0.00 0.00 0.00 0.00 0.00 0.00 0.01 0.00 0.00 0.00 0.00
0.00 0.00 0.00 0.00 0.00 0.00 0.00 0.00 0.00 0.04 0.04 0.00 0.00 0.00 0.00 0.00 0.00 0.00 0.00 0.00 0.00 0.00 0.00 0.00 0.00 0.00 0.00 0.00 0.00 0.00 0.00 0.00 0.00 0.00 0.00 0.00 0.00 0.02 0.01 0.00 0.00 0.00 0.00
0.00 0.00 0.00 0.00 0.00 0.00 0.00 0.00 0.00 0.01 0.06 0.03 0.00 0.00 0.00 0.00 0.00 0.00 0.00 0.00 0.00 0.00 0.00 0.00 0.00 0.00 0.00 0.00 0.00 0.00 0.00 0.00 0.00 0.00 0.00 0.00 0.01 0.02 0.00 0.00 0.00 0.00 0.00
0.00 0.00 0.00 0.00 0.00 0.00 0.00 0.00 0.00 0.00 0.02 0.06 0.03 0.01 0.00 0.00 0.00 0.00 0.00 0.00 0.00 0.00 0.00 0.00 0.00 0.00 0.00 0.00 0.00 0.00 0.00 0.00 0.00 0.00 0.00 0.00 0.00 0.00 0.00 0.00 0.00 0.00 0.00
0.00 0.00 0.00 0.00 0.00 0.00 0.00 0.00 0.00 0.00 0.00 0.01 0.10 0.05 0.01 0.00 0.00 0.00 0.00 0.00 0.00 0.00 0.00 0.00 0.00 0.00 0.00 0.00 0.00 0.00 0.00 0.00 0.00 0.00 0.00 0.00 0.00 0.00 0.00 0.00 0.00 0.00 0.00
0.00 0.00 0.00 0.00 0.00 0.00 0.00 0.00 0.00 0.00 0.00 0.00 0.02 0.05 0.02 0.00 0.00 0.00 0.00 0.00 0.00 0.00 0.00 0.00 0.00 0.00 0.00 0.00 0.00 0.00 0.00 0.00 0.00 0.00 0.00 0.00 0.00 0.00 0.00 0.00 0.00 0.00 0.00
0.00 0.00 0.00 0.00 0.00 0.00 0.00 0.00 0.00 0.00 0.00 0.00 0.00 0.03 0.07 0.03 0.00 0.00 0.00 0.00 0.00 0.00 0.00 0.00 0.00 0.00 0.00 0.01 0.01 0.00 0.00 0.00 0.00 0.00 0.00 0.00 0.00 0.00 0.00 0.00 0.00 0.00 0.00
0.00 0.00 0.00 0.00 0.00 0.00 0.00 0.00 0.00 0.00 0.00 0.00 0.00 0.00 0.06 0.12 0.05 0.00 0.00 0.00 0.00 0.00 0.00 0.00 0.00 0.00 0.00 0.01 0.01 0.00 0.00 0.00 0.00 0.00 0.00 0.00 0.00 0.00 0.00 0.00 0.00 0.00 0.00
0.00 0.00 0.00 0.00 0.00 0.00 0.00 0.00 0.00 0.00 0.00 0.00 0.00 0.00 0.02 0.09 0.12 0.07 0.00 0.00 0.00 0.00 0.00 0.00 0.00 0.00 0.00 0.00 0.00 0.00 0.00 0.00 0.00 0.00 0.00 0.00 0.00 0.00 0.00 0.00 0.00 0.00 0.00
0.00 0.00 0.00 0.00 0.00 0.00 0.00 0.00 0.00 0.00 0.00 0.00 0.00 0.00 0.01 0.08 0.15 0.14 0.04 0.00 0.00 0.00 0.00 0.00 0.00 0.00 0.00 0.00 0.00 0.00 0.01 0.00 0.00 0.00 0.00 0.00 0.00 0.00 0.00 0.00 0.00 0.00 0.00
0.00 0.00 0.00 0.00 0.00 0.00 0.00 0.00 0.00 0.00 0.00 0.00 0.00 0.00 0.00 0.06 0.15 0.17 0.08 0.00 0.00 0.00 0.00 0.00 0.00 0.00 0.00 0.00 0.00 0.00 0.00 0.00 0.00 0.00 0.00 0.00 0.00 0.00 0.00 0.00 0.00 0.00 0.00
0.00 0.00 0.00 0.00 0.00 0.00 0.00 0.00 0.03 0.08 0.03 0.01 0.01 0.00 0.00 0.05 0.08 0.11 0.09 0.02 0.00 0.00 0.00 0.00 0.00 0.00 0.00 0.00 0.00 0.00 0.00 0.00 0.00 0.00 0.00 0.00 0.00 0.00 0.00 0.00 0.00 0.00 0.00
0.00 0.00 0.00 0.00 0.00 0.00 0.00 0.01 0.07 0.16 0.09 0.04 0.05 0.02 0.02 0.07 0.04 0.03 0.03 0.01 0.00 0.00 0.00 0.00 0.00 0.00 0.00 0.00 0.00 0.00 0.00 0.00 0.00 0.00 0.00 0.00 0.00 0.00 0.00 0.00 0.00 0.00 0.00
0.00 0.00 0.00 0.00 0.00 0.00 0.00 0.04 0.14 0.32 0.22 0.12 0.12 0.06 0.05 0.08 0.04 0.02 0.01 0.00 0.00 0.00 0.00 0.00 0.00 0.00 0.00 0.00 0.00 0.00 0.00 0.00 0.00 0.00 0.00 0.00 0.00 0.00 0.00 0.00 0.00 0.00 0.00
MSLP
1011.70 1011.51 1011.44 1011.79 1012.25 1012.72 1013.10 1013.41 1013.65 1013.93 1014.19 1014.45 1014.70 1015.08 1015.43 1015.76 1015.99 1016.29 1016.56 1016.83 1017.11 1017.31 1017.40 1017.42 1017.42 1017.48 1017.46 1017.70 1017.97 1018.25 1018.19 1018.27 1018.56 1018.71 1018.58 1018.54 1018.66 1018.86 1019.03 1019.07 1019.06 1018.98 1018.83
1010.98 1011.36 1011.51 1011.79 1012.18 1012.70 1013.12 1013.48 1013.83 1014.09 1014.41 1014.66 1014.87 1015.15 1015.47 1015.82 1016.10 1016.31 1016.75 1017.06 1017.25 1017.49 1017.61 1017.70 1017.67 1017.76 1017.88 1018.22 1018.33 1018.41 1018.56 1018.88 1019.06 1019.03 1018.98 1019.10 1019.22 1019.32 1019.45 1019.45 1019.43 1019.41 1019.38
1010.92 1011.28 1011.54 1011.85 1012.27 1012.69 1013.19 1013.56 1013.91 1014.18 1014.49 1014.78 1015.06 1015.23 1015.45 1015.82 1016.15 1016.53 1017.01 1017.36 1017.63 1017.81 1017.93 1018.00 1018.03 1018.04 1018.32 1018.47 1018.60 1018.81 1019.09 1019.22 1019.31 1019.39 1019.43 1019.60 1019.65 1019.73 1019.89 1019.89 1019.91 1019.96 1019.97
1010.96 1011.24 1011.58 1011.88 1012.33 1012.70 1013.17 1013.61 1013.94 1014.26 1014.56 1014.87 1015.13 1015.41 1015.56 1015.92 1016.37 1016.80 1017.22 1017.63 1017.93 1018.15 1018.22 1018.27 1018.32 1018.47 1018.61 1018.90 1019.15 1019.35 1019.49 1019.62 1019.64 1019.67 1019.81 1019.94 1019.92 1019.96 1020.16 1020.33 1020.24 1020.19 1020.14
1011.22 1011.31 1011.62 1011.91 1012.32 1012.67 1013.06 1013.55 1013.92 1014.27 1014.65 1014.94 1015.23 1015.49 1015.74 1016.07 1016.55 1017.03 1017.36 1017.73 1018.12 1018.39 1018.53 1018.61 1018.75 1018.92 1019.13 1019.34 1019.52 1019.68 1019.77 1019.76 1019.90 1020.11 1020.17 1020.25 1020.36 1020.36 1020.34 1020.46 1020.50 1020.63 1020.59
1011.38 1011.50 1011.69 1011.91 1012.31 1012.77 1013.01 1013.40 1013.82 1014.23 1014.56 1014.91 1015.22 1015.46 1015.87 1016.25 1016.79 1017.24 1017.64 1017.97 1018.29 1018.63 1018.82 1018.95 1019.09 1019.33 1019.59 1019.71 1019.70 1019.97 1020.13 1020.32 1020.51 1020.76 1020.73 1020.58 1020.73 1020.84 1020.89 1020.98 1021.02 1021.14 1021.24
1011.44 1011.61 1011.83 1011.98 1012.30 1012.69 1013.04 1013.35 1013.78 1014.16 1014.51 1014.88 1015.14 1015.38 1015.96 1016.47 1016.99 1017.38 1017.88 1018.22 1018.50 1018.80 1019.07 1019.31 1019.42 1019.59 1019.84 1019.82 1019.98 1020.31 1020.62 1020.76 1020.96 1021.01 1021.12 1021.17 1021.03 1021.17 1021.49 1021.51 1021.52 1021.57 1021.69
1011.34 1011.58 1011.87 1012.08 1012.32 1012.60 1013.01 1013.28 1013.70 1014.14 1014.49 1014.80 1015.13 1015.43 1015.96 1016.61 1017.19 1017.57 1017.99 1018.30 1018.60 1018.94 1019.31 1019.59 1019.74 1019.92 1020.04 1020.13 1020.35 1020.67 1020.87 1020.95 1021.12 1021.46 1021.64 1021.52 1021.54 1021.87 1021.87 1022.08 1022.25 1022.15 1022.14
1011.43 1011.74 1011.86 1012.09 1012.43 1012.65 1012.99 1013.29 1013.62 1014.06 1014.46 1014.80 1015.04 1015.40 1015.98 1016.66 1017.17 1017.72 1018.13 1018.34 1018.60 1018.89 1019.45 1019.82 1019.99 1020.22 1020.33 1020.45 1020.74 1021.04 1021.09 1021.23 1021.51 1021.79 1021.74 1022.02 1022.10 1022.10 1022.43 1022.46 1022.64 1022.79 1022.77
1011.66 1011.83 1011.93 1012.11 1012.36 1012.68 1012.99 1013.26 1013.55 1013.94 1014.50 1014.91 1015.23 1015.58 1016.10 1016.71 1017.30 1017.80 1018.21 1018.39 1018.53 1018.97 1019.54 1019.86 1020.19 1020.51 1020.53 1020.83 1021.13 1021.33 1021.46 1021.56 1021.91 1022.01 1022.41 1022.57 1022.41 1022.54 1022.75 1023.00 1023.01 1023.09 1023.27
1011.78 1011.82 1011.88 1012.11 1012.25 1012.61 1012.94 1013.20 1013.46 1013.80 1014.51 1015.09 1015.51 1015.90 1016.44 1017.01 1017.52 1018.03 1018.27 1018.47 1018.69 1019.07 1019.58 1019.99 1020.29 1020.60 1020.94 1021.29 1021.49 1021.67 1021.83 1022.00 1022.21 1022.49 1022.92 1022.98 1022.89 1022.99 1023.20 1023.35 1023.57 1023.51 1023.70
1011.79 1011.65 1011.79 1012.00 1012.17 1012.39 1012.81 1013.12 1013.57 1013.98 1014.47 1014.99 1015.61 1016.16 1016.78 1017.28 1017.68 1018.11 1018.43 1018.51 1018.88 1019.23 1019.58 1019.95 1020.56 1020.99 1021.41 1021.84 1021.95 1022.07 1022.24 1022.29 1022.54 1023.24 1023.32 1023.27 1023.26 1023.43 1023.58 1023.74 1023.97 1023.91 1024.13
1011.40 1011.55 1011.60 1011.75 1011.91 1012.26 1012.67 1013.08 1013.59 1013.90 1014.52 1015.02 1015.49 1016.07 1016.72 1017.35 1017.72 1018.19 1018.53 1018.77 1019.06 1019.49 1019.66 1020.07 1020.87 1021.55 1021.81 1022.15 1022.46 1022.51 1022.50 1022.58 1023.14 1023.61 1023.66 1023.67 1023.72 1023.75 1023.89 1024.06 1024.16 1024.34 1024.35
1011.55 1011.42 1011.62 1011.77 1011.97 1012.26 1012.52 1012.91 1013.38 1013.78 1014.29 1014.81 1015.29 1015.84 1016.55 1017.35 1017.87 1018.15 1018.53 1018.92 1019.37 1019.88 1020.12 1020.22 1020.95 1021.65 1022.06 1022.36 1022.71 1022.77 1022.85 1023.12 1023.63 1024.13 1024.05 1024.07 1024.07 1024.01 1024.12 1024.43 1024.53 1024.70 1024.74
1011.19 1011.25 1011.40 1011.81 1011.90 1012.16 1012.50 1012.88 1013.27 1013.67 1014.08 1014.56 1015.13 1015.67 1016.09 1016.96 1017.78 1018.41 1018.56 1018.83 1019.47 1020.01 1020.35 1020.69 1021.00 1021.47 1022.14 1022.63 1022.91 1022.93 1023.29 1023.60 1024.21 1024.48 1024.45 1024.46 1024.60 1024.33 1024.54 1024.67 1024.77 1024.91 1025.18
1010.72 1010.91 1011.17 1011.58 1011.85 1011.98 1012.35 1012.66 1013.06 1013.36 1013.84 1014.43 1014.92 1015.39 1015.83 1016.44 1017.28 1018.20 1018.84 1019.21 1019.45 1020.04 1020.55 1020.76 1021.01 1021.44 1022.08 1022.76 1023.13 1023.20 1023.66 1024.05 1024.63 1024.83 1024.95 1024.78 1024.89 1024.83 1024.86 1024.98 1025.02 1025.16 1025.31
1009.89 1010.19 1010.74 1011.21 1011.63 1011.92 1012.21 1012.57 1012.84 1013.14 1013.51 1014.21 1014.76 1015.18 1015.69 1016.28 1017.07 1017.76 1018.56 1019.30 1019.86 1020.07 1020.50 1021.14 1021.31 1021.64 1022.09 1022.78 1023.22 1023.47 1023.96 1024.39 1024.89 1025.25 1025.38 1025.23 1025.27 1025.24 1025.16 1025.26 1025.34 1025.33 1025.54
1009.36 1009.65 1010.11 1010.65 1011.28 1011.75 1012.03 1012.43 1012.82 1013.17 1013.52 1013.89 1014.39 1014.92 1015.36 1016.02 1016.77 1017.48 1018.21 1019.04 1019.78 1020.41 1020.58 1021.01 1021.25 1021.80 1022.34 1022.82 1023.34 1023.88 1024.26 1024.68 1025.21 1025.53 1025.71 1025.66 1025.76 1025.96 1025.79 1025.57 1025.67 1025.55 1025.71
1008.49 1008.94 1009.55 1010.10 1010.70 1011.37 1011.97 1012.35 1012.83 1013.20 1013.73 1014.08 1014.39 1014.82 1015.34 1016.15 1016.49 1017.11 1017.83 1018.82 1019.55 1020.54 1020.82 1020.94 1021.30 1021.51 1022.38 1022.98 1023.57 1024.21 1024.63 1025.02 1025.41 1025.75 1026.08 1026.15 1026.10 1026.36 1026.63 1026.31 1026.28 1026.10 1026.01
1007.82 1008.37 1008.88 1009.43 1010.09 1011.04 1011.97 1012.59 1013.03 1013.59 1014.07 1014.34 1014.56 1014.84 1014.97 1015.47 1016.28 1017.05 1017.78 1018.91 1019.25 1020.21 1021.14 1021.05 1021.19 1021.71 1022.36 1022.86 1023.87 1024.77 1025.20 1025.41 1025.74 1026.03 1026.35 1026.41 1026.52 1026.66 1026.91 1026.99 1026.98 1026.88 1026.48
1007.40 1007.94 1008.46 1009.20 1009.91 1010.75 1011.76 1012.58 1013.16 1013.41 1013.77 1014.22 1014.52 1014.64 1014.99 1015.33 1015.46 1016.97 1017.98 1018.76 1019.35 1019.83 1020.47 1021.05 1021.39 1021.72 1022.67 1023.00 1023.98 1025.30 1025.88 1025.98 1026.28 1026.25 1026.47 1026.68 1026.86 1026.93 1027.10 1027.31 1027.41 1027.29 1027.22
1006.86 1007.46 1008.11 1008.67 1009.35 1009.96 1010.68 1011.39 1012.22 1012.68 1013.23 1013.43 1013.99 1014.52 1014.74 1015.03 1015.33 1015.89 1017.76 1018.83 1019.37 1019.87 1020.23 1020.84 1021.05 1021.78 1022.30 1022.83 1023.40 1024.81 1026.18 1026.56 1026.52 1026.66 1026.76 1026.75 1027.06 1027.15 1027.28 1027.44 1027.49 1027.56 1027.51
1006.55 1006.98 1007.56 1008.15 1008.79 1009.47 1010.15 1011.03 1011.90 1012.67 1013.14 1013.54 1013.98 1014.46 1014.77 1014.83 1015.07 1015.25 1017.06 1018.23 1019.39 1019.83 1019.68 1020.36 1020.87 1020.98 1021.48 1022.71 1022.88 1023.42 1025.60 1025.89 1026.56 1026.88 1026.89 1026.96 1027.14 1027.36 1027.33 1027.51 1027.59 1027.68 1027.76
1006.22 1006.72 1007.24 1007.83 1008.47 1009.15 1009.80 1010.40 1010.83 1011.11 1011.71 1011.78 1012.26 1013.19 1013.66 1014.19 1014.79 1014.59 1015.28 1018.26 1019.71 1019.45 1019.49 1019.85 1020.41 1020.87 1020.90 1021.99 1023.17 1023.27 1023.83 1024.91 1026.13 1027.23 1027.05 1027.05 1027.11 1027.32 1027.26 1027.49 1027.51 1027.66 1027.79
1006.33 1006.75 1007.16 1007.73 1008.41 1008.95 1009.43 1009.67 1010.06 1010.41 1010.49 1010.26 1011.44 1012.19 1013.12 1013.71 1013.92 1014.48 1014.90 1017.59 1018.70 1018.74 1019.12 1019.44 1020.06 1020.67 1020.89 1021.28 1022.07 1023.35 1024.14 1025.04 1025.63 1026.30 1026.99 1027.11 1027.22 1026.99 1027.09 1027.24 1027.34 1027.49 1027.70
1006.46 1006.72 1007.08 1007.60 1008.17 1008.62 1009.03 1009.44 1009.67 1009.96 1010.29 1010.61 1010.61 1010.89 1012.10 1012.90 1013.32 1014.18 1014.20 1016.03 1016.73 1017.84 1018.54 1019.06 1019.66 1020.37 1020.78 1021.06 1021.65 1022.57 1023.35 1024.25 1025.26 1025.77 1026.63 1026.91 1027.05 1026.90 1026.79 1026.97 1027.19 1027.25 1027.48
Thickness
5744 5747 5747 5745 5743 5740 5738 5738 5737 5736 5735 5734 5734 5733 5733 5733 5732 5731 5731 5731 5731 5731 5733 5735 5737 5739 5740 5739 5737 5733 5735 5734 5729 5726 5728 5728 5726 5723 5721 5719 5717 5717 5716
5749 5747 5745 5744 5742 5739 5737 5735 5735 5734 5733 5732 5731 5731 5731 5731 5731 5731 5730 5730 5730 5730 5732 5733 5735 5736 5736 5735 5734 5734 5732 5728 5725 5726 5727 5726 5723 5721 5718 5716 5715 5714 5712
5746 5744 5742 5741 5739 5737 5735 5733 5732 5732 5730 5730 5729 5729 5729 5729 5730 5730 5728 5727 5727 5727 5728 5730 5732 5733 5733 5732 5732 5732 5728 5726 5725 5725 5724 5722 5720 5718 5715 5714 5712 5711 5709
5742 5741 5739 5738 5736 5735 5733 5731 5730 5730 5729 5727 5727 5727 5728 5727 5727 5727 5726 5724 5724 5725 5726 5727 5728 5729 5730 5729 5728 5727 5725 5724 5724 5724 5722 5720 5718 5716 5714 5712 5710 5709 5709
5735 5736 5735 5734 5733 5732 5731 5729 5728 5728 5727 5726 5725 5725 5725 5724 5723 5723 5724 5723 5722 5722 5722 5723 5724 5724 5725 5725 5724 5723 5723 5723 5723 5722 5720 5718 5715 5714 5713 5711 5709 5707 5706
5729 5729 5730 5730 5728 5727 5728 5727 5726 5725 5724 5724 5723 5723 5723 5722 5720 5719 5719 5720 5720 5720 5719 5720 5720 5720 5720 5721 5721 5721 5720 5720 5720 5718 5717 5716 5713 5710 5709 5708 5706 5704 5702
5725 5723 5723 5724 5725 5724 5723 5723 5722 5722 5721 5722 5722 5721 5719 5718 5716 5716 5715 5716 5717 5717 5717 5717 5716 5717 5717 5719 5719 5717 5717 5717 5716 5716 5714 5712 5711 5708 5705 5704 5703 5701 5699
5722 5719 5717 5718 5719 5720 5719 5719 5719 5718 5718 5719 5719 5719 5716 5714 5713 5712 5712 5712 5713 5714 5713 5713 5713 5713 5715 5715 5715 5715 5715 5715 5714 5712 5710 5709 5707 5703 5703 5701 5699 5698 5697
5716 5715 5713 5712 5712 5713 5713 5714 5715 5715 5714 5714 5716 5716 5714 5711 5710 5709 5709 5710 5710 5711 5710 5710 5709 5709 5710 5711 5711 5710 5711 5712 5711 5708 5708 5704 5702 5701 5699 5697 5696 5694 5693
5711 5710 5708 5707 5707 5708 5709 5710 5711 5711 5709 5708 5709 5711 5709 5708 5706 5706 5705 5707 5709 5708 5707 5707 5705 5705 5706 5706 5707 5707 5707 5708 5706 5705 5702 5699 5699 5697 5695 5693 5693 5692 5689
5704 5705 5705 5703 5703 5704 5705 5705 5706 5706 5704 5703 5703 5704 5704 5703 5701 5700 5702 5702 5704 5705 5704 5703 5702 5701 5702 5701 5702 5702 5702 5703 5702 5701 5697 5696 5695 5694 5691 5689 5688 5689 5686
5697 5701 5700 5700 5699 5700 5700 5700 5699 5700 5699 5698 5698 5698 5697 5696 5697 5697 5697 5699 5699 5700 5701 5700 5698 5696 5696 5695 5696 5697 5697 5698 5698 5693 5692 5692 5691 5689 5687 5686 5684 5685 5683
5693 5695 5697 5696 5695 5695 5694 5695 5693 5694 5693 5694 5694 5693 5692 5691 5692 5693 5693 5694 5694 5694 5697 5697 5694 5690 5691 5690 5690 5691 5693 5693 5691 5688 5687 5686 5686 5685 5683 5682 5682 5680 5680
5684 5689 5690 5691 5690 5689 5689 5690 5690 5689 5689 5689 5690 5689 5687 5685 5686 5688 5689 5689 5689 5688 5691 5693 5690 5687 5686 5685 5684 5685 5687 5687 5685 5682 5682 5681 5680 5681 5679 5677 5677 5676 5676
5681 5682 5683 5682 5685 5685 5684 5684 5685 5684 5685 5684 5684 5684 5685 5682 5680 5680 5682 5685 5684 5684 5684 5686 5685 5684 5682 5680 5678 5680 5680 5680 5678 5677 5676 5676 5675 5676 5674 5673 5673 5673 5671
5675 5676 5676 5676 5677 5679 5680 5680 5681 5681 5680 5679 5679 5680 5679 5679 5677 5674 5674 5675 5678 5678 5678 5679 5680 5680 5678 5675 5674 5674 5673 5673 5672 5671 5670 5671 5670 5669 5669 5668 5668 5668 5668
5674 5673 5672 5670 5670 5671 5673 5673 5674 5677 5677 5674 5673 5674 5673 5672 5670 5669 5668 5666 5666 5671 5672 5671 5672 5672 5673 5670 5669 5668 5667 5667 5666 5666 5665 5666 5665 5663 5664 5663 5663 5664 5664
5669 5667 5666 5665 5663 5663 5665 5665 5665 5666 5668 5668 5667 5667 5667 5665 5664 5662 5661 5660 5658 5660 5665 5664 5665 5665 5665 5666 5664 5661 5660 5660 5661 5661 5660 5661 5659 5657 5657 5658 5658 5660 5660
5666 5665 5661 5660 5659 5656 5653 5653 5654 5654 5654 5656 5656 5656 5655 5653 5656 5653 5652 5652 5652 5649 5655 5658 5659 5661 5659 5658 5657 5654 5654 5654 5655 5655 5655 5655 5654 5652 5651 5652 5653 5654 5656
5661 5660 5658 5656 5653 5647 5642 5639 5639 5637 5637 5638 5639 5639 5642 5644 5642 5642 5641 5640 5644 5642 5643 5650 5653 5653 5652 5653 5649 5644 5644 5646 5648 5649 5650 5650 5649 5648 5647 5647 5648 5649 5652
5654 5651 5651 5648 5643 5637 5631 5626 5624 5627 5624 5622 5619 5620 5621 5625 5632 5627 5626 5627 5630 5635 5639 5640 5643 5644 5642 5645 5642 5635 5634 5637 5639 5642 5643 5645 5643 5643 5643 5643 5643 5645 5646
5647 5645 5644 5641 5636 5634 5628 5624 5618 5615 5612 5611 5606 5603 5605 5610 5618 5620 5609 5611 5615 5622 5629 5632 5636 5636 5639 5640 5642 5634 5627 5629 5631 5634 5635 5638 5638 5639 5638 5638 5638 5639 5641
5640 5639 5637 5635 5632 5627 5623 5616 5608 5600 5596 5594 5594 5592 5592 5596 5605 5610 5593 5600 5600 5608 5623 5626 5630 5636 5639 5634 5639 5640 5624 5632 5622 5626 5630 5632 5634 5633 5634 5634 5635 5635 5635
5635 5633 5632 5629 5624 5619 5615 5610 5605 5600 5596 5597 5591 5582 5581 5580 5585 5594 5602 5584 5582 5599 5612 5620 5623 5627 5635 5634 5628 5633 5633 5628 5625 5619 5623 5625 5629 5629 5631 5630 5631 5631 5631
5627 5624 5624 5620 5615 5611 5607 5604 5598 5594 5592 5591 5576 5567 5559 5562 5567 5569 5582 5571 5577 5592 5602 5611 5616 5620 5627 5632 5633 5625 5623 5619 5618 5617 5617 5620 5622 5626 5627 5627 5627 5628 5626
5613 5615 5615 5613 5609 5605 5601 5595 5591 5587 5582 5571 5565 5559 5548 5546 5552 5558 5578 5572 5582 5588 5596 5604 5610 5613 5618 5625 5625 5623 5622 5620 5614 5615 5611 5612 5617 5621 5624 5624 5624 5624 5623